Погода в Жьяре-над-Гроном

Словакия     48°35′30″N   18°50′57″E
темп.,
°C
ветер,
м/с
пор.,
м/с
влажн.,
%
обл.,
%
осадки,
мм/ч
давл.,
гПа
погр.,
м
13 апреля, вт
вт1323:00+5ююз3398100 4.5 1018237
02:00+4сз3595100 4.8 1019509
05:00+2с3690100 0.0 1020425
08:00+2с3685100 0.0 1020472
11:00+2с3679100 0.0 1021542
14:00+1с3692100 0.3 1021453
17:00+1с3797100 1.1 1020434
20:00+1ссз2798100 2.3 1020374
14 апреля, ср
ср1423:00+1ссз31095100 0.9 1021804
02:000ссз3994100 0.9 1020957
05:000ссз3992100 0.2 1020758
08:00+1ссз3987100 0.3 1021797
11:00+3ссз41168100 0.1 10201561
14:00+4ссз5958100 0.1 10201696
17:00+3ссз5967100 0.1 10211161
20:000ссз2382100 0.1 102275
15 апреля, чт
чт1523:00−1сз2291100 0.0 102260
02:00−1сз2394100 0.0 1021111
05:00−1сз2396100 0.0 1021103
08:00+1сз2584100 0.0 1021412
11:00+4ссз4758100 0.0 10211413
14:00+5ссз4758100 0.1 10201480
17:00+4ссз4760100 0.0 10201345
20:00+1ссз2483100 0.0 1021156
16 апреля, пт
пт1623:00−2ссз239556 0.0 102156
02:00−3ссз229741 0.0 102147
05:00−3ссз22978 0.0 102151
08:00+1сз237822 0.0 1020341
11:00+6сз235877 0.0 10191131
14:00+6сз3359100 0.0 10191289
17:00+6ссз336496 0.0 10191069
20:00+1ссз229398 0.0 102131
17 апреля, сб
сб1723:00−1с23976 0.0 102252
02:00−1ссв239829 0.0 102160
05:00−1ссв239733 0.0 1021101
08:00+3св227952 0.0 1021282
11:00+9ююв0159100 0.0 10201184
14:00+7ююз1165100 0.1 1019854
17:00+8ссз116499 0.0 1019765
20:00+6всв1178100 0.0 102010